Weather in Okunevo

Russia / Kirov Oblast     57°19′53″N   49°21′37″E
temp.,
°C
wind,
m/s
gust,
m/s
humid.,
%
clouds,
%
prec.,
mm/h
press.,
hPa
HPBL,
m
22 may, sun
sun2200:00+1nnw4798100 0.0 1005455
03:00+1nw4798100 0.1 1004331
06:000nnw5690100 0.2 1003497
09:00+2nw5672100 0.3 10021138
12:00+3nw5670100 0.1 10011067
15:00+5nw5666100 0.4 10011154
18:00+5nw4676100 0.3 1000845
21:00+1wnw369169 0.5 999125
23 may, mon
mon2300:000w379422 0.0 998144
03:00−1w359877 0.0 997118
06:00+1wsw3595100 0.1 997414
09:00+4wsw567899 0.2 996900
12:00+5wsw5671100 0.3 9961202
15:00+6wsw5668100 0.8 9971324
18:00+5wsw4683100 0.8 997777
21:00+3ssw3594100 1.1 998130
24 may, tue
tue2400:00+2ssw3699100 0.8 998464
03:00+1s3798100 1.6 999383
06:00+1sw47100100 1.8 1000313
09:00+2sw6884100 2.2 1003936
12:00+4sw4678100 0.1 10051085
15:00+6sw3466100 0.1 10071328
18:00+5sse128199 0.1 1008555
21:00+4se229283 0.2 101079
25 may, wed
wed2500:00+2se2295100 0.0 101020
03:00+3sse2295100 0.0 101191
06:00+4ene118997 0.0 1011259
09:00+7ssw017665 0.0 1011749
12:00+9ssw126393 0.1 10101148
15:00+11nnw216088 0.1 10101187
18:00+9nnw447395 0.0 1010507
21:00+7n3781100 0.2 1010198
26 may, thu
thu2600:00+6n4892100 1.4 1010249
03:00+5nnw4989100 1.6 1009284
06:00+6nnw598484 0.0 1010343
09:00+10nnw676735 0.0 1008930
12:00+13nw685486 0.0 10081535
15:00+14nw685099 0.0 10081874
18:00+12nw486524 0.0 1007427
21:00+8nw513735 0.0 1007282